User: anonymous   Login
Location: Gipe Farm
(40.9466°N, 95.5370°W)
Time: 13:44:04
(UTC-05:00)
Language:

Cosmos 1842 - Orbit

View from above orbital plane
View from above orbital plane
View from above satellite
View from above satellite

Ground track
Ground track

The orbit data is extracted from the following two-line orbital elements,

1 17911U 87038A   17206.28445141 +.00000621 +00000-0 +34965-4 0  9990
2 17911 082.5223 156.3160 0013461 111.2972 248.9696 15.11301536647268
Epoch (UTC): 25 July 2017 06:49:36
Eccentricity: 0.0013461
inclination: 82.5223°
perigee height: 523 km
apogee height: 541 km
right ascension of ascending node: 156.3160°
argument of perigee: 111.2972°
revolutions per day: 15.11301536
mean anomaly at epoch: 248.9696°
orbit number at epoch: 64726

The dashed part of the orbit path shows where the satellite is in the earth's shadow,  

DLR